Weather History for Smyrna, TN

Change the Weather History Date:

Friday, August 23, 2013

  Actual Average Record
Temperature  
Mean Temperature 80 °F -  
Max Temperature 92 °F 85 °F 108 °F (2007)
Min Temperature 68 °F 67 °F 57 °F (1997)
Cooling Degree Days 14    
Growing Degree Days 30 (Base 50)    
Moisture  
Dew Point 71 °F    
Average Humidity 85    
Maximum Humidity 100    
Minimum Humidity 47    
Precipitation  
Precipitation 0.00 in - - ()
Sea Level Pressure  
Sea Level Pressure 30.08 in    
Wind  
Wind Speed 1 mph (NNE)    
Max Wind Speed 9 mph    
Max Gust Speed -    
Visibility 8 miles    
Events      
Averages and records for this station are not official NWS values.
T = Trace of Precipitation, MM = Missing Value Source: NWS Daily Summary

Daily Weather History Graph

Daily Weather History Graph

Search for Another Location

Airport:

Trip Planner

Search our weather history database for the weather conditions in past years. The results will help you decide how hot, cold, wet, or windy it might be!

Date:

Astronomy

Aug. 23, 2013 Rise Set
Actual Time 6:11 AM CDT 7:25 PM CDT
Civil Twilight 5:44 AM CDT 7:52 PM CDT
Nautical Twilight 5:12 AM CDT 8:23 PM CDT
Astronomical Twilight 4:39 AM CDT 8:56 PM CDT
Moon 8:52 PM CDT (8/23) 8:58 AM CDT (8/23)
Length of Visible Light 14h 07m
Length of Day
13h 14m
Waning Gibbous, 91% of the Moon is Illuminated
Aug 23
Waning Gibbous
Aug 28
Last Quarter
Sep 5
New
Sep 12
First Quarter
Sep 19
Full

Hourly Weather History & Observations

Time (CDT) Temp. Heat Index Dew Point Humidity Pressure Visibility Wind Dir Wind Speed Gust Speed Precip Events Conditions
12:56 AM 74.8 °F - 70.9 °F 87% 30.09 in 10.0 mi Calm Calm - N/A   Clear
1:56 AM 72.0 °F - 70.9 °F 96% 30.08 in 10.0 mi Calm Calm - N/A   Clear
2:56 AM 70.9 °F - 70.9 °F 100% 30.07 in 8.0 mi Calm Calm - N/A   Clear
3:31 AM 69.8 °F - 69.8 °F 100% 30.06 in 1.2 mi Calm Calm - N/A   Clear
3:38 AM 69.8 °F - 69.8 °F 100% 30.06 in 1.0 mi Calm Calm - N/A   Clear
3:41 AM 69.8 °F - 69.8 °F 100% 30.06 in 1.8 mi Calm Calm - N/A   Clear
3:48 AM 69.8 °F - 69.8 °F 100% 30.06 in 10.0 mi Calm Calm - N/A   Clear
3:56 AM 70.0 °F - 70.0 °F 100% 30.07 in 10.0 mi Calm Calm - N/A   Clear
4:45 AM 69.8 °F - 69.8 °F 100% 30.07 in 1.8 mi Calm Calm - N/A   Clear
4:48 AM 69.8 °F - 69.8 °F 100% 30.07 in 1.0 mi Calm Calm - N/A   Clear
4:56 AM 68.9 °F - 68.9 °F 100% 30.08 in 1.8 mi Calm Calm - N/A   Clear
4:58 AM 69.8 °F - 69.8 °F 100% 30.07 in 3.0 mi Calm Calm - N/A   Clear
5:56 AM 68.9 °F - 68.9 °F 100% 30.10 in 3.0 mi Calm Calm - N/A   Clear
6:56 AM 68.9 °F - 68.9 °F 100% 30.11 in 10.0 mi Calm Calm - N/A   Clear
7:56 AM 72.9 °F - 72.0 °F 97% 30.12 in 10.0 mi Calm Calm - N/A   Clear
8:56 AM 77.9 °F - 72.9 °F 84% 30.13 in 10.0 mi Calm Calm - 0.00 in   Clear
9:56 AM 82.9 °F 88.5 °F 72.9 °F 71% 30.13 in 10.0 mi NNE 5.8 mph - N/A   Clear
10:56 AM 86.0 °F 93.0 °F 72.9 °F 65% 30.12 in 10.0 mi NE 5.8 mph - N/A   Scattered Clouds
11:56 AM 88.0 °F 94.7 °F 72.0 °F 59% 30.10 in 10.0 mi Calm Calm - N/A   Clear
12:56 PM 90.0 °F 95.9 °F 70.9 °F 53% 30.09 in 10.0 mi Variable 6.9 mph - N/A   Scattered Clouds
1:56 PM 91.9 °F 97.4 °F 70.0 °F 48% 30.06 in 10.0 mi NNE 5.8 mph - N/A   Clear
2:56 PM 91.9 °F 96.9 °F 68.9 °F 47% 30.05 in 10.0 mi NE 4.6 mph - N/A   Clear
3:56 PM 88.9 °F 93.8 °F 70.0 °F 53% 30.02 in 10.0 mi North 6.9 mph - N/A   Clear
4:56 PM 81.9 °F 86.6 °F 72.0 °F 72% 30.06 in 10.0 mi North 9.2 mph - N/A   Clear
5:56 PM 81.9 °F 86.6 °F 72.0 °F 72% 30.05 in 10.0 mi North 5.8 mph - N/A   Clear
6:56 PM 79.9 °F - 73.9 °F 82% 30.08 in 10.0 mi North 8.1 mph - N/A   Scattered Clouds
7:56 PM 77.9 °F - 73.9 °F 88% 30.08 in 10.0 mi North 6.9 mph - N/A   Clear
8:56 PM 75.9 °F - 70.0 °F 82% 30.09 in 10.0 mi Calm Calm - N/A   Clear
9:56 PM 73.9 °F - 70.0 °F 87% 30.11 in 10.0 mi Calm Calm - N/A   Clear
10:56 PM 72.9 °F - 70.0 °F 91% 30.11 in 10.0 mi Calm Calm - N/A   Clear
11:56 PM 72.9 °F - 70.0 °F 91% 30.12 in 10.0 mi Calm Calm - N/A   Clear